Location: Fort Worth, Tx
(32.7431°N, 97.3695°W)
Time: 20:32:26
(UTC-05:00)

Tiros 1 - Pass Details

Date: 10 October 2024
Orbit: 622 x 654 km, 48.4° (Epoch: 05 November)

Event Time Altitude Azimuth Distance (km) Brightness Sun altitude
Rises 08:17:11 0° 247° (WSW) 2,942 - -3.6°
Exits shadow 08:17:17 - 247° (WSW) 2,903 10.0 -3.6°
Reaches altitude 10° 08:19:37 10° 254° (WSW) 2,029 9.1 -3.1°
Maximum altitude 08:24:05 43° 326° (NNW) 888 7.6 -2.1°
Drops below altitude 10° 08:28:31 10° 39° (NE) 2,014 10.2 -1.2°
Sets 08:30:55 0° 46° (NE) 2,918 11.1 -0.7°
